2025-226B

Last updated on Mon Oct 20 2025 00:02:08 GMT+0000 (Coordinated Universal Time)

1 65939U 25226B 25288.37950097 .00006454 00000+0 39845-3 0 9994 2 65939 97.6632 2.5160 0018080 269.3185 90.5972 15.10115030 641
UTC large
Height (km)
Speed (km/s)
/
Latitude / Longitude
Inclination (degrees)
Orbital Period (minutes)
Azimuth
Elevation
Range (km)
Doppler Factor

Next 0 passes for location: London (51.5072 / 0.1276)

Sorry there are no passes over London.